Regional Weather Roundup
Issued by NWS State College, PA

Home | Current Version | Previous Version | Graphics & Text | Print | Product List | Glossary On
Versions: 1 2 3 4 5 6 7 8 9 10 11 12 13 14 15 16 17 18 19 20 21 22 23 24 25 26 27 28 29 30 31 32 33 34 35 36 37 38 39 40 41 42 43 44 45 46 47 48 49 50
000
ASUS41 KCTP 200510
RWRCTP

REGIONAL WEATHER ROUNDUP
NATIONAL WEATHER SERVICE STATE COLLEGE PA
100 AM EDT SAT SEP 20 2014

Note: "fair" indicates few or no clouds below 12,000 feet with no
significant weather and/or obstructions to visibility.

* = STATION THAT DOES NOT REPORT PRECIPITATION /E.G. RAIN...SNOW...ETC/
    THUNDER OR FOG.

PAZ002>004-007>009-013>016-020>023-029>032-200600-
WESTERN PENNSYLVANIA

CITY           SKY/WX    TMP DP  RH WIND       PRES   REMARKS
ERIE           PTCLDY    62  53  72 S15       30.08F
MEADVILLE      PTCLDY    60  53  77 S8        30.13R
FRANKLIN*      PTCLDY    57  52  82 S15       30.16S
NEW CASTLE     NOT AVBL
BEAVER COUNTY  NOT AVBL
BUTLER*        CLEAR     59  52  77 SE7       30.18S
PITTSBURGH INT CLEAR     61  55  81 SE8       30.15S
PITTSBURGH     CLEAR     60  52  74 S7        30.16S
INDIANA*       PTCLDY    61  55  82 S10       30.23S
LATROBE        CLEAR     64  54  68 S10G16    30.19S
WASHINGTON CO* CLEAR     61  54  77 S3        30.17S
$$

PAZ004>006-010>012-017>019-024>028-033>037-041-042-045-046-049>053-200600-
CENTRAL PENNSYLVANIA

CITY           SKY/WX    TMP DP  RH WIND       PRES   REMARKS
BRADFORD       CLEAR     56  51  84 S8        30.18S
DUBOIS         CLEAR     58  53  84 S7        30.19R
CLEARFIELD     CLOUDY    58  53  84 CALM      30.23S
JOHNSTOWN      CLEAR     58  53  84 S16G24    30.23S
ALTOONA        CLOUDY    62  56  80 S12       30.25S
STATE COLLEGE  CLOUDY    61  55  80 S3        30.25S
WILLIAMSPORT   PTCLDY    62  52  69 S16G28    30.25S
SELINSGROVE    CLOUDY    62  54  74 S5        30.29R
FT INDIANTOWN  CLOUDY    58  57  97 NE5       30.31F
CAPITAL CITY   CLOUDY    61  55  81 SE10      30.29F
HARRISBURG     CLOUDY    60  55  83 SE12      30.29F
YORK           CLOUDY    60  56  86 SE8       30.29F
$$

PAZ038>040-043-044-047-048-054-055-060>062-067>071-200600-
EASTERN PENNSYLVANIA

CITY           SKY/WX    TMP DP  RH WIND       PRES   REMARKS
SCRANTON       CLOUDY    57  49  74 VRB3      30.29S
MOUNT POCONO   CLOUDY    51  48  89 SE7       30.32F
ALLENTOWN      CLOUDY    57  50  77 VRB3      30.32F
QUAKERTOWN*    MOCLDY    54  50  87 CALM      30.33F
READING        CLOUDY    59  52  77 SE7       30.31S
LANCASTER      MOCLDY    54  52  93 E3        30.31F FOG
COATESVILLE    CLEAR     55  54  94 E5        30.32F
POTTSTOWN      CLOUDY    52  51  97 CALM      30.34F
BLUE BELL      CLEAR     52  52 100 CALM      30.31F
DOYLESTOWN     PTCLDY    54  52  93 CALM      30.32F
WILLOW GROVE   NOT AVBL
NORTH PHILA    MOCLDY    59  51  75 E5        30.34F
PHILADELPHIA   MOCLDY    59  54  83 E8        30.32F
$$



USA.gov is the U.S. government's official web portal to all federal, state and local government web resources and services.